Torna al catalogo

DELTA 1 DEB

AttivoSSO
NORAD 10709·DEBRIS·🇺🇸 United States

Lanciato Jul 29, 1976 da Vandenberg Space Force Base

Loading…

Prossimi Passaggi (prossime 24 ore)

TLE

AggiornatoSource: Space-Track

Epoca: Sep 14, 2026, 10:55 UTC

1 10709U 76077AE  26257.45541630 -.00000166  00000-0 -83563-3 0  9997
2 10709 101.9143 324.8179 0019758 349.7466  21.1756 12.46478460277157

Traccia DELTA 1 DEB in tempo reale con AllMySat

Download on the App Store